Time,TemperatureF,DewpointF,PressureIn,WindDirection,WindDirectionDegrees,WindSpeedMPH,WindSpeedGustMPH,Humidity,HourlyPrecipIn,Conditions,Clouds,dailyrainin,SoftwareType,DateUTC
2013-02-22 00:00:00,27.0,27.0,29.47,ENE,62,0.0,0.0,100,0.00,,,0.00,VWS V13.01,2013-02-22 06:00:00,
2013-02-22 00:05:00,27.0,27.0,29.47,ENE,62,0.0,0.0,100,0.00,,,0.00,VWS V13.01,2013-02-22 06:05:00,
2013-02-22 00:10:00,27.1,27.1,29.47,ENE,63,0.0,0.0,100,0.00,,,0.00,VWS V13.01,2013-02-22 06:10:00,
2013-02-22 00:15:00,27.1,27.1,29.47,ENE,63,0.0,0.0,100,0.00,,,0.00,VWS V13.01,2013-02-22 06:15:00,
2013-02-22 00:20:00,27.7,27.7,29.47,ENE,63,0.0,0.0,100,0.00,,,0.00,VWS V13.01,2013-02-22 06:20:00,
2013-02-22 00:25:00,27.5,27.5,29.47,ENE,62,0.0,0.0,100,0.00,,,0.00,VWS V13.01,2013-02-22 06:25:00,
2013-02-22 00:30:00,27.3,27.3,29.47,ENE,62,0.0,0.0,100,0.00,,,0.00,VWS V13.01,2013-02-22 06:30:00,
2013-02-22 00:35:00,27.3,27.3,29.47,ENE,62,0.0,0.0,100,0.00,,,0.00,VWS V13.01,2013-02-22 06:35:00,
2013-02-22 00:40:00,27.5,27.5,29.47,ENE,62,0.0,0.0,100,0.00,,,0.00,VWS V13.01,2013-02-22 06:40:00,
2013-02-22 00:45:00,27.5,27.5,29.47,ENE,62,0.0,0.0,100,0.00,,,0.00,VWS V13.01,2013-02-22 06:45:00,
2013-02-22 00:50:00,27.3,27.3,29.47,ENE,63,0.0,0.0,100,0.00,,,0.00,VWS V13.01,2013-02-22 06:50:00,
2013-02-22 00:55:00,27.5,27.5,29.47,ENE,63,0.0,0.0,100,0.00,,,0.00,VWS V13.01,2013-02-22 06:55:00,
2013-02-22 00:56:00,27.5,27.5,29.47,ENE,63,0.0,0.0,100,0.00,,,0.00,VWS V13.01,2013-02-22 06:56:00,
2013-02-22 01:00:00,27.3,27.3,29.50,ENE,63,0.0,0.0,100,0.00,,,0.00,VWS V13.01,2013-02-22 07:00:00,
2013-02-22 01:01:00,27.3,27.3,29.50,ENE,63,0.0,0.0,100,0.00,,,0.00,VWS V13.01,2013-02-22 07:01:00,
2013-02-22 01:05:00,27.3,27.3,29.50,ENE,62,0.0,0.0,100,0.00,,,0.00,VWS V13.01,2013-02-22 07:05:00,
2013-02-22 01:06:00,27.3,27.3,29.50,ENE,62,0.0,0.0,100,0.00,,,0.00,VWS V13.01,2013-02-22 07:06:00,
2013-02-22 01:10:00,27.3,27.3,29.50,ENE,63,0.0,0.0,100,0.00,,,0.00,VWS V13.01,2013-02-22 07:10:00,
2013-02-22 01:11:00,27.3,27.3,29.50,ENE,63,0.0,0.0,100,0.00,,,0.00,VWS V13.01,2013-02-22 07:11:00,
2013-02-22 01:15:00,27.5,27.5,29.50,ENE,62,0.0,0.0,100,0.00,,,0.00,VWS V13.01,2013-02-22 07:15:00,
2013-02-22 01:16:00,27.5,27.5,29.50,ENE,62,0.0,0.0,100,0.00,,,0.00,VWS V13.01,2013-02-22 07:16:00,
2013-02-22 01:20:00,27.5,27.5,29.50,ENE,62,0.0,0.0,100,0.00,,,0.00,VWS V13.01,2013-02-22 07:20:00,
2013-02-22 01:21:00,27.5,27.5,29.50,ENE,62,0.0,0.0,100,0.00,,,0.00,VWS V13.01,2013-02-22 07:21:00,
2013-02-22 01:25:00,27.7,27.7,29.50,ENE,62,0.0,0.0,100,0.00,,,0.00,VWS V13.01,2013-02-22 07:25:00,
2013-02-22 01:26:00,27.7,27.7,29.50,ENE,62,0.0,0.0,100,0.00,,,0.00,VWS V13.01,2013-02-22 07:26:00,
2013-02-22 01:30:00,27.7,27.7,29.50,ENE,62,0.0,0.0,100,0.00,,,0.00,VWS V13.01,2013-02-22 07:30:00,
2013-02-22 01:31:00,27.7,27.7,29.50,ENE,62,0.0,0.0,100,0.00,,,0.00,VWS V13.01,2013-02-22 07:31:00,
2013-02-22 01:36:00,27.7,27.7,29.50,ENE,62,0.0,0.0,100,0.00,,,0.00,VWS V13.01,2013-02-22 07:36:00,
2013-02-22 01:41:00,27.7,27.7,29.50,ENE,62,0.0,0.0,100,0.00,,,0.00,VWS V13.01,2013-02-22 07:41:00,
2013-02-22 01:46:00,27.7,27.7,29.50,ENE,62,0.0,0.0,100,0.00,,,0.00,VWS V13.01,2013-02-22 07:46:00,
2013-02-22 01:51:00,27.9,27.9,29.50,South,177,0.0,0.0,100,0.00,,,0.00,VWS V13.01,2013-02-22 07:51:00,
2013-02-22 01:56:00,27.9,27.9,29.50,South,177,0.0,0.0,100,0.00,,,0.00,VWS V13.01,2013-02-22 07:56:00,
2013-02-22 02:01:00,28.0,28.0,29.47,South,177,0.0,0.0,100,0.00,,,0.00,VWS V13.01,2013-02-22 08:01:00,
2013-02-22 02:06:00,28.0,28.0,29.47,South,177,0.0,0.0,100,0.00,,,0.00,VWS V13.01,2013-02-22 08:06:00,
2013-02-22 02:11:00,28.0,28.0,29.47,South,177,0.0,0.0,100,0.00,,,0.00,VWS V13.01,2013-02-22 08:11:00,
2013-02-22 02:16:00,28.0,28.0,29.50,South,177,0.0,0.0,100,0.00,,,0.00,VWS V13.01,2013-02-22 08:16:00,
2013-02-22 02:21:00,28.2,28.2,29.50,South,177,0.0,0.0,100,0.00,,,0.00,VWS V13.01,2013-02-22 08:21:00,
2013-02-22 02:26:00,28.0,28.0,29.50,South,177,0.0,0.0,100,0.00,,,0.00,VWS V13.01,2013-02-22 08:26:00,
2013-02-22 02:31:00,28.0,28.0,29.47,South,177,0.0,0.0,100,0.00,,,0.00,VWS V13.01,2013-02-22 08:31:00,
2013-02-22 02:32:00,28.0,28.0,29.47,South,177,0.0,0.0,100,0.00,,,0.00,VWS V13.01,2013-02-22 08:32:00,
2013-02-22 02:36:00,28.0,28.0,29.47,South,177,0.0,0.0,100,0.00,,,0.00,VWS V13.01,2013-02-22 08:36:00,
2013-02-22 02:37:00,28.2,28.2,29.47,South,176,0.0,0.0,100,0.00,,,0.00,VWS V13.01,2013-02-22 08:37:00,
2013-02-22 02:41:00,28.2,28.2,29.47,South,177,0.0,0.0,100,0.00,,,0.00,VWS V13.01,2013-02-22 08:41:00,
2013-02-22 02:42:00,28.2,28.2,29.47,South,177,0.0,0.0,100,0.00,,,0.00,VWS V13.01,2013-02-22 08:42:00,
2013-02-22 02:46:00,28.2,28.2,29.50,South,177,0.0,0.0,100,0.00,,,0.00,VWS V13.01,2013-02-22 08:46:00,
2013-02-22 02:47:00,28.2,28.2,29.50,South,177,0.0,0.0,100,0.00,,,0.00,VWS V13.01,2013-02-22 08:47:00,
2013-02-22 02:52:00,28.4,28.4,29.50,South,177,0.0,0.0,100,0.00,,,0.00,VWS V13.01,2013-02-22 08:52:00,
2013-02-22 02:57:00,28.6,28.6,29.47,South,176,0.0,0.0,100,0.00,,,0.00,VWS V13.01,2013-02-22 08:57:00,
2013-02-22 03:02:00,28.6,28.6,29.47,South,177,0.0,0.0,100,0.00,,,0.00,VWS V13.01,2013-02-22 09:02:00,
2013-02-22 03:07:00,28.6,28.6,29.47,South,177,0.0,0.0,100,0.00,,,0.00,VWS V13.01,2013-02-22 09:07:00,
2013-02-22 03:12:00,28.8,28.8,29.47,South,177,0.0,0.0,100,0.00,,,0.00,VWS V13.01,2013-02-22 09:12:00,
2013-02-22 03:17:00,28.9,28.9,29.50,South,177,0.0,0.0,100,0.00,,,0.00,VWS V13.01,2013-02-22 09:17:00,
2013-02-22 03:22:00,29.1,29.1,29.50,South,177,0.0,0.0,100,0.00,,,0.00,VWS V13.01,2013-02-22 09:22:00,
2013-02-22 03:27:00,29.1,29.1,29.50,South,177,0.0,0.0,100,0.00,,,0.00,VWS V13.01,2013-02-22 09:27:00,
2013-02-22 03:32:00,29.3,29.3,29.50,South,177,0.0,0.0,100,0.00,,,0.00,VWS V13.01,2013-02-22 09:32:00,
2013-02-22 03:37:00,29.3,29.3,29.50,South,177,0.0,0.0,100,0.00,,,0.00,VWS V13.01,2013-02-22 09:37:00,
2013-02-22 03:42:00,29.5,29.5,29.50,South,177,0.0,0.0,100,0.00,,,0.00,VWS V13.01,2013-02-22 09:42:00,
2013-02-22 03:47:00,29.7,29.7,29.50,South,177,0.0,0.0,100,0.00,,,0.00,VWS V13.01,2013-02-22 09:47:00,
2013-02-22 03:52:00,29.7,29.7,29.50,South,177,0.0,0.0,100,0.00,,,0.00,VWS V13.01,2013-02-22 09:52:00,
2013-02-22 03:57:00,29.7,29.7,29.50,South,177,0.0,0.0,100,0.00,,,0.00,VWS V13.01,2013-02-22 09:57:00,
2013-02-22 04:02:00,29.1,29.1,29.50,South,177,0.0,0.0,100,0.00,,,0.00,VWS V13.01,2013-02-22 10:02:00,
2013-02-22 04:07:00,28.6,28.6,29.50,South,177,0.0,0.0,100,0.00,,,0.00,VWS V13.01,2013-02-22 10:07:00,
2013-02-22 04:12:00,28.2,28.2,29.50,South,177,0.0,0.0,100,0.00,,,0.00,VWS V13.01,2013-02-22 10:12:00,
2013-02-22 04:17:00,27.9,27.9,29.50,South,177,0.0,0.0,100,0.00,,,0.00,VWS V13.01,2013-02-22 10:17:00,
2013-02-22 04:22:00,27.9,27.9,29.50,South,177,0.0,0.0,100,0.00,,,0.00,VWS V13.01,2013-02-22 10:22:00,
2013-02-22 04:27:00,27.9,27.9,29.53,South,177,0.0,0.0,100,0.00,,,0.00,VWS V13.01,2013-02-22 10:27:00,
2013-02-22 04:32:00,27.5,27.5,29.53,South,177,0.0,0.0,100,0.00,,,0.00,VWS V13.01,2013-02-22 10:32:00,
2013-02-22 04:33:00,27.3,27.3,29.53,South,177,0.0,0.0,100,0.00,,,0.00,VWS V13.01,2013-02-22 10:33:00,
2013-02-22 04:37:00,26.8,26.8,29.53,WSW,255,3.1,3.1,100,0.00,,,0.00,VWS V13.01,2013-02-22 10:37:00,
2013-02-22 04:38:00,26.6,26.6,29.53,SW,218,6.3,6.3,100,0.00,,,0.00,VWS V13.01,2013-02-22 10:38:00,
2013-02-22 04:42:00,26.2,26.2,29.53,West,269,2.7,2.7,100,0.00,,,0.00,VWS V13.01,2013-02-22 10:42:00,
2013-02-22 04:43:00,26.2,26.2,29.53,WNW,286,3.6,3.6,100,0.00,,,0.00,VWS V13.01,2013-02-22 10:43:00,
2013-02-22 04:47:00,25.9,25.9,29.53,SW,235,5.4,5.4,100,0.00,,,0.00,VWS V13.01,2013-02-22 10:47:00,
2013-02-22 04:48:00,25.9,25.9,29.53,West,265,3.6,3.6,100,0.00,,,0.00,VWS V13.01,2013-02-22 10:48:00,
2013-02-22 04:52:00,25.3,25.3,29.53,WSW,257,6.3,6.3,100,0.00,,,0.00,VWS V13.01,2013-02-22 10:52:00,
2013-02-22 04:53:00,25.3,25.3,29.53,West,262,5.8,5.8,100,0.00,,,0.00,VWS V13.01,2013-02-22 10:53:00,
2013-02-22 04:57:00,25.0,25.0,29.56,WSW,258,3.6,3.6,100,0.00,,,0.00,VWS V13.01,2013-02-22 10:57:00,
2013-02-22 04:58:00,25.0,25.0,29.56,WSW,258,3.6,3.6,100,0.00,,,0.00,VWS V13.01,2013-02-22 10:58:00,
2013-02-22 05:02:00,25.0,25.0,29.56,West,266,5.8,5.8,100,0.00,,,0.00,VWS V13.01,2013-02-22 11:02:00,
2013-02-22 05:03:00,25.0,25.0,29.56,WSW,251,0.0,0.0,100,0.00,,,0.00,VWS V13.01,2013-02-22 11:03:00,
2013-02-22 05:07:00,24.8,24.8,29.56,WNW,290,0.0,0.0,100,0.00,,,0.00,VWS V13.01,2013-02-22 11:07:00,
2013-02-22 05:08:00,24.8,24.8,29.56,WNW,290,0.0,0.0,100,0.00,,,0.00,VWS V13.01,2013-02-22 11:08:00,
2013-02-22 05:12:00,24.8,24.8,29.56,West,281,4.0,4.0,100,0.00,,,0.00,VWS V13.01,2013-02-22 11:12:00,
2013-02-22 05:13:00,24.8,24.8,29.56,West,281,4.0,4.0,100,0.00,,,0.00,VWS V13.01,2013-02-22 11:13:00,
2013-02-22 05:18:00,24.6,24.6,29.56,West,272,5.8,5.8,100,0.00,,,0.00,VWS V13.01,2013-02-22 11:18:00,
2013-02-22 05:23:00,24.6,24.6,29.56,West,273,7.2,7.2,100,0.00,,,0.00,VWS V13.01,2013-02-22 11:23:00,
2013-02-22 05:28:00,24.4,24.4,29.56,West,273,3.1,3.1,100,0.00,,,0.00,VWS V13.01,2013-02-22 11:28:00,
2013-02-22 05:33:00,24.4,24.4,29.56,WSW,247,5.4,5.4,100,0.00,,,0.00,VWS V13.01,2013-02-22 11:33:00,
2013-02-22 05:38:00,24.3,24.3,29.56,West,265,4.9,4.9,100,0.00,,,0.00,VWS V13.01,2013-02-22 11:38:00,
2013-02-22 05:43:00,24.1,24.1,29.56,WNW,297,8.3,8.3,100,0.00,,,0.00,VWS V13.01,2013-02-22 11:43:00,
2013-02-22 05:48:00,23.9,23.9,29.56,WNW,288,5.8,5.8,100,0.00,,,0.00,VWS V13.01,2013-02-22 11:48:00,
2013-02-22 05:53:00,23.7,23.7,29.56,West,278,5.4,5.4,100,0.00,,,0.00,VWS V13.01,2013-02-22 11:53:00,
2013-02-22 05:58:00,23.7,23.7,29.56,West,271,5.4,5.4,100,0.00,,,0.00,VWS V13.01,2013-02-22 11:58:00,
2013-02-22 06:03:00,23.5,23.5,29.56,West,266,2.2,2.2,100,0.00,,,0.00,VWS V13.01,2013-02-22 12:03:00,
2013-02-22 06:08:00,23.5,23.5,29.56,West,263,4.0,4.0,100,0.00,,,0.00,VWS V13.01,2013-02-22 12:08:00,
2013-02-22 06:09:00,23.5,23.5,29.56,West,268,5.4,5.4,100,0.00,,,0.00,VWS V13.01,2013-02-22 12:09:00,
2013-02-22 06:13:00,23.2,23.2,29.56,West,274,5.8,5.8,100,0.00,,,0.00,VWS V13.01,2013-02-22 12:13:00,
2013-02-22 06:14:00,23.2,23.2,29.56,West,262,3.6,3.6,100,0.00,,,0.00,VWS V13.01,2013-02-22 12:14:00,
2013-02-22 06:18:00,23.2,23.2,29.56,West,275,6.3,6.3,100,0.00,,,0.00,VWS V13.01,2013-02-22 12:18:00,
2013-02-22 06:19:00,23.0,23.0,29.56,West,261,4.0,4.0,100,0.00,,,0.00,VWS V13.01,2013-02-22 12:19:00,
2013-02-22 06:23:00,22.8,22.8,29.56,WNW,287,3.1,3.1,100,0.00,,,0.00,VWS V13.01,2013-02-22 12:23:00,
2013-02-22 06:24:00,22.8,22.8,29.56,NW,316,3.1,3.1,100,0.00,,,0.00,VWS V13.01,2013-02-22 12:24:00,
2013-02-22 06:28:00,22.8,22.8,29.59,SW,225,5.8,5.8,100,0.00,,,0.00,VWS V13.01,2013-02-22 12:28:00,
2013-02-22 06:29:00,22.8,22.8,29.59,SW,231,3.1,3.1,100,0.00,,,0.00,VWS V13.01,2013-02-22 12:29:00,
2013-02-22 06:33:00,22.6,22.6,29.59,West,262,3.1,3.1,100,0.00,,,0.00,VWS V13.01,2013-02-22 12:33:00,
2013-02-22 06:34:00,22.8,22.8,29.59,West,273,5.4,5.4,100,0.00,,,0.00,VWS V13.01,2013-02-22 12:34:00,
2013-02-22 06:38:00,22.8,22.8,29.59,West,268,3.1,3.1,100,0.00,,,0.00,VWS V13.01,2013-02-22 12:38:00,
2013-02-22 06:39:00,22.8,22.8,29.59,West,281,5.4,5.4,100,0.00,,,0.00,VWS V13.01,2013-02-22 12:39:00,
2013-02-22 06:43:00,22.6,22.6,29.59,West,274,3.1,3.1,100,0.00,,,0.00,VWS V13.01,2013-02-22 12:43:00,
2013-02-22 06:44:00,22.6,22.6,29.59,WNW,287,7.2,7.2,100,0.00,,,0.00,VWS V13.01,2013-02-22 12:44:00,
2013-02-22 06:48:00,22.6,22.6,29.59,WNW,297,2.7,2.7,100,0.00,,,0.00,VWS V13.01,2013-02-22 12:48:00,
2013-02-22 06:49:00,22.6,22.6,29.59,WNW,293,4.0,4.0,100,0.00,,,0.00,VWS V13.01,2013-02-22 12:49:00,
2013-02-22 06:53:00,22.5,22.5,29.59,NW,325,0.0,0.0,100,0.00,,,0.00,VWS V13.01,2013-02-22 12:53:00,
2013-02-22 06:54:00,22.5,22.5,29.59,NW,316,6.3,6.3,100,0.00,,,0.00,VWS V13.01,2013-02-22 12:54:00,
2013-02-22 06:58:00,22.3,22.3,29.59,WNW,284,2.2,2.2,100,0.00,,,0.00,VWS V13.01,2013-02-22 12:58:00,
2013-02-22 06:59:00,22.3,22.3,29.59,WNW,284,0.0,0.0,100,0.00,,,0.00,VWS V13.01,2013-02-22 12:59:00,
2013-02-22 07:03:00,22.3,22.3,29.59,WNW,296,3.1,3.1,100,0.00,,,0.00,VWS V13.01,2013-02-22 13:03:00,
2013-02-22 07:04:00,22.5,22.5,29.59,WNW,282,2.7,2.7,100,0.00,,,0.00,VWS V13.01,2013-02-22 13:04:00,
2013-02-22 07:08:00,22.3,22.3,29.59,WNW,300,3.6,3.6,100,0.00,,,0.00,VWS V13.01,2013-02-22 13:08:00,
2013-02-22 07:09:00,22.3,22.3,29.59,WNW,300,0.0,0.0,100,0.00,,,0.00,VWS V13.01,2013-02-22 13:09:00,
2013-02-22 07:13:00,22.1,22.1,29.59,West,265,0.0,0.0,100,0.00,,,0.00,VWS V13.01,2013-02-22 13:13:00,
2013-02-22 07:14:00,22.1,22.1,29.59,WSW,249,2.7,2.7,100,0.00,,,0.00,VWS V13.01,2013-02-22 13:14:00,
2013-02-22 07:18:00,22.3,22.3,29.59,West,266,0.0,0.0,100,0.00,,,0.00,VWS V13.01,2013-02-22 13:18:00,
2013-02-22 07:19:00,22.3,22.3,29.59,West,266,0.0,0.0,100,0.00,,,0.00,VWS V13.01,2013-02-22 13:19:00,
2013-02-22 07:23:00,22.5,22.5,29.59,West,273,2.7,2.7,100,0.00,,,0.00,VWS V13.01,2013-02-22 13:23:00,
2013-02-22 07:24:00,22.5,22.5,29.59,West,273,0.0,0.0,100,0.00,,,0.00,VWS V13.01,2013-02-22 13:24:00,
2013-02-22 07:28:00,22.5,22.5,29.62,WNW,283,0.0,0.0,100,0.00,,,0.00,VWS V13.01,2013-02-22 13:28:00,
2013-02-22 07:29:00,22.5,22.5,29.62,WNW,283,0.0,0.0,100,0.00,,,0.00,VWS V13.01,2013-02-22 13:29:00,
2013-02-22 07:33:00,22.6,22.6,29.62,West,267,2.7,2.7,100,0.00,,,0.00,VWS V13.01,2013-02-22 13:33:00,
2013-02-22 07:34:00,22.6,22.6,29.62,West,267,3.1,3.1,100,0.00,,,0.00,VWS V13.01,2013-02-22 13:34:00,
2013-02-22 07:38:00,22.6,22.6,29.62,West,264,2.2,2.2,100,0.00,,,0.00,VWS V13.01,2013-02-22 13:38:00,
2013-02-22 07:39:00,22.6,22.6,29.62,West,264,0.0,0.0,100,0.00,,,0.00,VWS V13.01,2013-02-22 13:39:00,
2013-02-22 07:43:00,22.6,22.6,29.62,West,269,3.1,3.1,100,0.00,,,0.00,VWS V13.01,2013-02-22 13:43:00,
2013-02-22 07:44:00,22.6,22.6,29.62,West,277,3.1,3.1,100,0.00,,,0.00,VWS V13.01,2013-02-22 13:44:00,
2013-02-22 07:48:00,22.8,22.8,29.62,WNW,283,5.4,5.4,100,0.00,,,0.00,VWS V13.01,2013-02-22 13:48:00,
2013-02-22 07:49:00,22.8,22.8,29.62,West,259,3.6,3.6,100,0.00,,,0.00,VWS V13.01,2013-02-22 13:49:00,
2013-02-22 07:53:00,22.8,22.8,29.62,West,265,4.0,4.0,100,0.00,,,0.00,VWS V13.01,2013-02-22 13:53:00,
2013-02-22 07:54:00,22.8,22.8,29.62,WNW,291,5.4,5.4,100,0.00,,,0.00,VWS V13.01,2013-02-22 13:54:00,
2013-02-22 07:58:00,23.0,23.0,29.62,West,265,0.0,0.0,100,0.00,,,0.00,VWS V13.01,2013-02-22 13:58:00,
2013-02-22 07:59:00,23.0,23.0,29.62,West,265,0.0,0.0,100,0.00,,,0.00,VWS V13.01,2013-02-22 13:59:00,
2013-02-22 08:00:00,23.0,23.0,29.62,West,265,0.0,0.0,100,0.00,,,0.00,VWS V13.01,2013-02-22 14:00:00,
2013-02-22 08:03:00,23.2,23.2,29.62,WSW,257,2.7,2.7,100,0.00,,,0.00,VWS V13.01,2013-02-22 14:03:00,
2013-02-22 08:04:00,23.0,23.0,29.62,WSW,257,2.7,2.7,100,0.00,,,0.00,VWS V13.01,2013-02-22 14:04:00,
2013-02-22 08:05:00,23.2,23.2,29.62,WSW,257,0.0,0.0,100,0.00,,,0.00,VWS V13.01,2013-02-22 14:05:00,
2013-02-22 08:08:00,23.4,23.4,29.62,West,260,0.0,0.0,100,0.00,,,0.00,VWS V13.01,2013-02-22 14:08:00,
2013-02-22 08:09:00,23.4,23.4,29.62,West,260,0.0,0.0,100,0.00,,,0.00,VWS V13.01,2013-02-22 14:09:00,
2013-02-22 08:10:00,23.4,23.4,29.62,West,260,0.0,0.0,100,0.00,,,0.00,VWS V13.01,2013-02-22 14:10:00,
2013-02-22 08:14:00,23.5,23.5,29.65,West,270,2.2,2.2,100,0.00,,,0.00,VWS V13.01,2013-02-22 14:14:00,
2013-02-22 08:15:00,23.5,23.5,29.65,West,269,0.0,0.0,100,0.00,,,0.00,VWS V13.01,2013-02-22 14:15:00,
2013-02-22 08:19:00,23.5,23.5,29.65,WSW,251,2.2,2.2,100,0.00,,,0.00,VWS V13.01,2013-02-22 14:19:00,
2013-02-22 08:20:00,23.5,23.5,29.65,WSW,255,2.7,2.7,100,0.00,,,0.00,VWS V13.01,2013-02-22 14:20:00,
2013-02-22 08:24:00,23.5,23.5,29.65,West,273,3.6,3.6,100,0.00,,,0.00,VWS V13.01,2013-02-22 14:24:00,
2013-02-22 08:25:00,23.5,23.5,29.65,West,270,2.7,2.7,100,0.00,,,0.00,VWS V13.01,2013-02-22 14:25:00,
2013-02-22 08:29:00,23.7,23.7,29.65,WSW,246,2.7,2.7,100,0.00,,,0.00,VWS V13.01,2013-02-22 14:29:00,
2013-02-22 08:30:00,23.7,23.7,29.65,West,260,3.1,3.1,100,0.00,,,0.00,VWS V13.01,2013-02-22 14:30:00,
2013-02-22 08:34:00,23.9,23.9,29.65,West,264,0.0,0.0,100,0.00,,,0.00,VWS V13.01,2013-02-22 14:34:00,
2013-02-22 08:35:00,23.7,23.7,29.65,West,279,5.8,5.8,100,0.00,,,0.00,VWS V13.01,2013-02-22 14:35:00,
2013-02-22 08:39:00,23.9,21.7,29.65,West,281,3.1,3.1,91,0.00,,,0.00,VWS V13.01,2013-02-22 14:39:00,
2013-02-22 08:40:00,23.9,21.7,29.65,West,276,6.3,6.3,91,0.00,,,0.00,VWS V13.01,2013-02-22 14:40:00,
2013-02-22 08:44:00,23.9,21.7,29.65,West,274,2.2,2.2,91,0.00,,,0.00,VWS V13.01,2013-02-22 14:44:00,
2013-02-22 08:45:00,24.1,21.8,29.65,West,274,0.0,0.0,91,0.00,,,0.00,VWS V13.01,2013-02-22 14:45:00,
2013-02-22 08:49:00,24.1,21.8,29.65,West,280,2.7,2.7,91,0.00,,,0.00,VWS V13.01,2013-02-22 14:49:00,
2013-02-22 08:50:00,23.9,21.7,29.65,WNW,288,5.8,5.8,91,0.00,,,0.00,VWS V13.01,2013-02-22 14:50:00,
2013-02-22 08:54:00,24.3,22.0,29.65,West,269,3.1,3.1,91,0.00,,,0.00,VWS V13.01,2013-02-22 14:54:00,
2013-02-22 08:55:00,24.3,22.0,29.65,WNW,284,2.7,2.7,91,0.00,,,0.00,VWS V13.01,2013-02-22 14:55:00,
2013-02-22 08:59:00,24.6,22.4,29.65,West,276,3.6,3.6,91,0.00,,,0.00,VWS V13.01,2013-02-22 14:59:00,
2013-02-22 09:00:00,24.6,22.4,29.65,West,280,0.0,0.0,91,0.00,,,0.00,VWS V13.01,2013-02-22 15:00:00,
2013-02-22 09:04:00,24.8,22.5,29.65,West,265,4.9,4.9,91,0.00,,,0.00,VWS V13.01,2013-02-22 15:04:00,
2013-02-22 09:05:00,24.8,22.5,29.65,WSW,255,2.7,2.7,91,0.00,,,0.00,VWS V13.01,2013-02-22 15:05:00,
2013-02-22 09:09:00,25.0,22.7,29.65,West,265,0.0,0.0,91,0.00,,,0.00,VWS V13.01,2013-02-22 15:09:00,
2013-02-22 09:10:00,25.2,22.9,29.65,West,265,0.0,0.0,91,0.00,,,0.00,VWS V13.01,2013-02-22 15:10:00,
2013-02-22 09:14:00,25.5,25.5,29.68,WSW,253,2.2,2.2,100,0.00,,,0.00,VWS V13.01,2013-02-22 15:14:00,
2013-02-22 09:15:00,25.3,23.1,29.68,WNW,292,3.6,3.6,91,0.00,,,0.00,VWS V13.01,2013-02-22 15:15:00,
2013-02-22 09:19:00,25.3,25.3,29.68,WSW,244,2.7,2.7,100,0.00,,,0.00,VWS V13.01,2013-02-22 15:19:00,
2013-02-22 09:20:00,25.3,23.1,29.68,WSW,253,2.2,2.2,91,0.00,,,0.00,VWS V13.01,2013-02-22 15:20:00,
2013-02-22 09:24:00,25.5,23.3,29.68,WSW,254,0.0,0.0,91,0.00,,,0.00,VWS V13.01,2013-02-22 15:24:00,
2013-02-22 09:25:00,25.5,23.3,29.68,WSW,253,0.0,0.0,91,0.00,,,0.00,VWS V13.01,2013-02-22 15:25:00,
2013-02-22 09:29:00,26.2,24.0,29.68,West,267,2.2,2.2,91,0.00,,,0.00,VWS V13.01,2013-02-22 15:29:00,
2013-02-22 09:30:00,26.4,24.1,29.68,WSW,249,0.0,0.0,91,0.00,,,0.00,VWS V13.01,2013-02-22 15:30:00,
2013-02-22 09:34:00,26.2,24.0,29.68,WSW,251,0.0,0.0,91,0.00,,,0.00,VWS V13.01,2013-02-22 15:34:00,
2013-02-22 09:35:00,26.4,24.1,29.68,West,273,3.1,3.1,91,0.00,,,0.00,VWS V13.01,2013-02-22 15:35:00,
2013-02-22 09:39:00,26.1,23.8,29.68,WSW,250,4.0,4.0,91,0.00,,,0.00,VWS V13.01,2013-02-22 15:39:00,
2013-02-22 09:40:00,25.7,23.4,29.68,West,278,7.6,7.6,91,0.00,,,0.00,VWS V13.01,2013-02-22 15:40:00,
2013-02-22 09:44:00,26.1,23.8,29.68,WSW,238,2.7,2.7,91,0.00,,,0.00,VWS V13.01,2013-02-22 15:44:00,
2013-02-22 09:45:00,26.2,24.0,29.68,WSW,243,2.7,2.7,91,0.00,,,0.00,VWS V13.01,2013-02-22 15:45:00,
2013-02-22 09:49:00,26.1,23.8,29.68,WSW,250,2.7,2.7,91,0.00,,,0.00,VWS V13.01,2013-02-22 15:49:00,
2013-02-22 09:50:00,26.4,24.1,29.68,WSW,246,2.2,2.2,91,0.00,,,0.00,VWS V13.01,2013-02-22 15:50:00,
2013-02-22 09:55:00,26.6,24.3,29.68,SW,231,4.0,4.0,91,0.00,,,0.00,VWS V13.01,2013-02-22 15:55:00,
2013-02-22 10:00:00,26.8,22.9,29.68,WSW,251,2.2,2.2,85,0.00,,,0.00,VWS V13.01,2013-02-22 16:00:00,
2013-02-22 10:05:00,27.9,24.0,29.68,WSW,251,3.1,3.1,85,0.00,,,0.00,VWS V13.01,2013-02-22 16:05:00,
2013-02-22 10:10:00,27.5,23.6,29.68,SW,229,2.7,2.7,85,0.00,,,0.00,VWS V13.01,2013-02-22 16:10:00,
2013-02-22 10:15:00,27.0,23.1,29.71,West,273,2.7,2.7,85,0.00,,,0.00,VWS V13.01,2013-02-22 16:15:00,
2013-02-22 10:20:00,27.0,23.1,29.71,WSW,244,4.9,4.9,85,0.00,,,0.00,VWS V13.01,2013-02-22 16:20:00,
2013-02-22 10:25:00,27.1,23.2,29.71,WSW,246,3.1,3.1,85,0.00,,,0.00,VWS V13.01,2013-02-22 16:25:00,
2013-02-22 10:30:00,26.6,24.3,29.71,WSW,252,5.8,5.8,91,0.00,,,0.00,VWS V13.01,2013-02-22 16:30:00,
2013-02-22 10:31:00,26.6,24.3,29.71,WSW,250,2.2,2.2,91,0.00,,,0.00,VWS V13.01,2013-02-22 16:31:00,
2013-02-22 10:35:00,27.1,23.2,29.71,West,270,5.4,5.4,85,0.00,,,0.00,VWS V13.01,2013-02-22 16:35:00,
2013-02-22 10:36:00,27.3,23.4,29.71,West,272,7.6,7.6,85,0.00,,,0.00,VWS V13.01,2013-02-22 16:36:00,
2013-02-22 10:40:00,26.2,24.0,29.71,NNW,341,4.0,4.0,91,0.00,,,0.00,VWS V13.01,2013-02-22 16:40:00,
2013-02-22 10:41:00,26.2,24.0,29.71,West,265,6.3,6.3,91,0.00,,,0.00,VWS V13.01,2013-02-22 16:41:00,
2013-02-22 10:45:00,26.8,22.9,29.71,West,277,2.7,2.7,85,0.00,,,0.00,VWS V13.01,2013-02-22 16:45:00,
2013-02-22 10:46:00,27.0,23.1,29.71,West,269,6.3,6.3,85,0.00,,,0.00,VWS V13.01,2013-02-22 16:46:00,
2013-02-22 10:50:00,27.1,23.2,29.71,WSW,252,7.6,7.6,85,0.00,,,0.00,VWS V13.01,2013-02-22 16:50:00,
2013-02-22 10:51:00,27.1,23.2,29.71,WNW,297,5.8,5.8,85,0.00,,,0.00,VWS V13.01,2013-02-22 16:51:00,
2013-02-22 10:55:00,27.7,23.8,29.71,West,270,3.6,3.6,85,0.00,,,0.00,VWS V13.01,2013-02-22 16:55:00,
2013-02-22 10:56:00,27.1,23.2,29.71,West,261,5.4,5.4,85,0.00,,,0.00,VWS V13.01,2013-02-22 16:56:00,
2013-02-22 11:00:00,26.8,22.9,29.71,WSW,256,3.6,3.6,85,0.00,,,0.00,VWS V13.01,2013-02-22 17:00:00,
2013-02-22 11:01:00,26.8,22.9,29.71,WSW,257,3.1,3.1,85,0.00,,,0.00,VWS V13.01,2013-02-22 17:01:00,
2013-02-22 11:02:00,27.0,23.1,29.71,WSW,238,3.6,3.6,85,0.00,,,0.00,VWS V13.01,2013-02-22 17:02:00,
2013-02-22 11:05:00,27.9,24.0,29.71,West,275,3.1,3.1,85,0.00,,,0.00,VWS V13.01,2013-02-22 17:05:00,
2013-02-22 11:06:00,27.9,24.0,29.71,West,280,4.9,4.9,85,0.00,,,0.00,VWS V13.01,2013-02-22 17:06:00,
2013-02-22 11:07:00,27.3,23.4,29.71,West,262,7.6,7.6,85,0.00,,,0.00,VWS V13.01,2013-02-22 17:07:00,
2013-02-22 11:10:00,27.9,24.0,29.71,WSW,248,6.3,6.3,85,0.00,,,0.00,VWS V13.01,2013-02-22 17:10:00,
2013-02-22 11:11:00,28.4,24.5,29.71,SSW,213,2.7,2.7,85,0.00,,,0.00,VWS V13.01,2013-02-22 17:11:00,
2013-02-22 11:12:00,28.6,24.6,29.71,SW,214,4.0,4.0,85,0.00,,,0.00,VWS V13.01,2013-02-22 17:12:00,
2013-02-22 11:15:00,28.2,24.3,29.74,West,274,8.1,8.1,85,0.00,,,0.00,VWS V13.01,2013-02-22 17:15:00,
2013-02-22 11:16:00,28.2,24.3,29.74,WNW,293,5.8,5.8,85,0.00,,,0.00,VWS V13.01,2013-02-22 17:16:00,
2013-02-22 11:17:00,28.0,24.1,29.74,West,263,5.8,5.8,85,0.00,,,0.00,VWS V13.01,2013-02-22 17:17:00,
2013-02-22 11:20:00,28.8,24.8,29.74,West,268,0.0,0.0,85,0.00,,,0.00,VWS V13.01,2013-02-22 17:20:00,
2013-02-22 11:21:00,28.6,24.6,29.74,West,267,0.0,0.0,85,0.00,,,0.00,VWS V13.01,2013-02-22 17:21:00,
2013-02-22 11:22:00,29.1,25.2,29.74,West,276,5.4,5.4,85,0.00,,,0.00,VWS V13.01,2013-02-22 17:22:00,
2013-02-22 11:25:00,28.6,24.6,29.74,WSW,251,5.4,5.4,85,0.00,,,0.00,VWS V13.01,2013-02-22 17:25:00,
2013-02-22 11:26:00,28.6,24.6,29.74,West,279,4.0,4.0,85,0.00,,,0.00,VWS V13.01,2013-02-22 17:26:00,
2013-02-22 11:27:00,28.6,24.6,29.74,West,271,3.6,3.6,85,0.00,,,0.00,VWS V13.01,2013-02-22 17:27:00,
2013-02-22 11:30:00,27.7,23.8,29.74,WSW,244,5.4,5.4,85,0.00,,,0.00,VWS V13.01,2013-02-22 17:30:00,
2013-02-22 11:31:00,28.4,24.5,29.74,WSW,247,2.7,2.7,85,0.00,,,0.00,VWS V13.01,2013-02-22 17:31:00,
2013-02-22 11:32:00,27.9,24.0,29.74,WSW,258,6.3,6.3,85,0.00,,,0.00,VWS V13.01,2013-02-22 17:32:00,
2013-02-22 11:35:00,29.7,25.7,29.74,WSW,253,4.0,4.0,85,0.00,,,0.00,VWS V13.01,2013-02-22 17:35:00,
2013-02-22 11:36:00,29.7,25.7,29.74,WSW,253,4.0,4.0,85,0.00,,,0.00,VWS V13.01,2013-02-22 17:36:00,
2013-02-22 11:37:00,29.7,25.7,29.74,West,265,2.2,2.2,85,0.00,,,0.00,VWS V13.01,2013-02-22 17:37:00,
2013-02-22 11:41:00,29.1,25.2,29.74,SW,226,0.0,0.0,85,0.00,,,0.00,VWS V13.01,2013-02-22 17:41:00,
2013-02-22 11:42:00,28.6,24.6,29.74,WSW,256,6.3,6.3,85,0.00,,,0.00,VWS V13.01,2013-02-22 17:42:00,
2013-02-22 11:46:00,29.7,25.7,29.74,West,272,5.8,5.8,85,0.00,,,0.00,VWS V13.01,2013-02-22 17:46:00,
2013-02-22 11:47:00,28.2,24.3,29.74,West,259,3.1,3.1,85,0.00,,,0.00,VWS V13.01,2013-02-22 17:47:00,
2013-02-22 11:51:00,28.8,24.8,29.74,WSW,257,0.0,0.0,85,0.00,,,0.00,VWS V13.01,2013-02-22 17:51:00,
2013-02-22 11:52:00,28.9,25.0,29.74,SW,232,4.0,4.0,85,0.00,,,0.00,VWS V13.01,2013-02-22 17:52:00,
2013-02-22 11:56:00,29.7,25.7,29.74,WSW,241,4.0,4.0,85,0.00,,,0.00,VWS V13.01,2013-02-22 17:56:00,
2013-02-22 11:57:00,29.5,25.5,29.74,WSW,250,2.7,2.7,85,0.00,,,0.00,VWS V13.01,2013-02-22 17:57:00,
2013-02-22 12:01:00,31.6,27.7,29.74,West,271,5.8,5.8,85,0.00,,,0.00,VWS V13.01,2013-02-22 18:01:00,
2013-02-22 12:02:00,31.5,27.5,29.74,WSW,240,3.1,3.1,85,0.00,,,0.00,VWS V13.01,2013-02-22 18:02:00,
2013-02-22 12:06:00,30.2,26.2,29.74,WSW,251,5.4,5.4,85,0.00,,,0.00,VWS V13.01,2013-02-22 18:06:00,
2013-02-22 12:07:00,30.4,26.4,29.74,West,272,4.9,4.9,85,0.00,,,0.00,VWS V13.01,2013-02-22 18:07:00,
2013-02-22 12:11:00,30.6,26.6,29.74,WSW,246,2.7,2.7,85,0.00,,,0.00,VWS V13.01,2013-02-22 18:11:00,
2013-02-22 12:13:00,29.5,25.5,29.74,SW,215,5.8,5.8,85,0.00,,,0.00,VWS V13.01,2013-02-22 18:13:00,
2013-02-22 12:16:00,30.2,26.2,29.74,WSW,237,0.0,0.0,85,0.00,,,0.00,VWS V13.01,2013-02-22 18:16:00,
2013-02-22 12:18:00,31.5,27.5,29.74,WSW,248,0.0,0.0,85,0.00,,,0.00,VWS V13.01,2013-02-22 18:18:00,
2013-02-22 12:21:00,31.6,27.7,29.74,SW,217,2.2,2.2,85,0.00,,,0.00,VWS V13.01,2013-02-22 18:21:00,
2013-02-22 12:23:00,30.7,26.8,29.74,WSW,242,4.0,4.0,85,0.00,,,0.00,VWS V13.01,2013-02-22 18:23:00,
2013-02-22 12:26:00,30.6,26.6,29.74,WSW,239,3.1,3.1,85,0.00,,,0.00,VWS V13.01,2013-02-22 18:26:00,
2013-02-22 12:28:00,30.4,26.4,29.74,WSW,254,3.6,3.6,85,0.00,,,0.00,VWS V13.01,2013-02-22 18:28:00,
2013-02-22 12:31:00,30.6,26.6,29.74,SW,219,5.8,5.8,85,0.00,,,0.00,VWS V13.01,2013-02-22 18:31:00,
2013-02-22 12:32:00,30.6,26.6,29.74,WNW,282,0.0,0.0,85,0.00,,,0.00,VWS V13.01,2013-02-22 18:32:00,
2013-02-22 12:33:00,30.9,27.0,29.74,WSW,248,4.0,4.0,85,0.00,,,0.00,VWS V13.01,2013-02-22 18:33:00,
2013-02-22 12:36:00,31.3,27.3,29.74,WSW,251,4.0,4.0,85,0.00,,,0.00,VWS V13.01,2013-02-22 18:36:00,
2013-02-22 12:37:00,30.6,26.6,29.74,WSW,257,4.0,4.0,85,0.00,,,0.00,VWS V13.01,2013-02-22 18:37:00,
2013-02-22 12:38:00,30.7,26.8,29.74,WSW,248,3.6,3.6,85,0.00,,,0.00,VWS V13.01,2013-02-22 18:38:00,
2013-02-22 12:41:00,28.8,24.8,29.74,WSW,257,5.4,5.4,85,0.00,,,0.00,VWS V13.01,2013-02-22 18:41:00,
2013-02-22 12:42:00,29.5,25.5,29.74,WSW,251,3.6,3.6,85,0.00,,,0.00,VWS V13.01,2013-02-22 18:42:00,
2013-02-22 12:43:00,28.9,25.0,29.74,SW,233,3.1,3.1,85,0.00,,,0.00,VWS V13.01,2013-02-22 18:43:00,
2013-02-22 12:46:00,29.7,25.7,29.74,WSW,250,3.6,3.6,85,0.00,,,0.00,VWS V13.01,2013-02-22 18:46:00,
2013-02-22 12:47:00,29.8,25.9,29.74,WSW,256,5.8,5.8,85,0.00,,,0.00,VWS V13.01,2013-02-22 18:47:00,
2013-02-22 12:48:00,29.5,25.5,29.74,West,264,4.0,4.0,85,0.00,,,0.00,VWS V13.01,2013-02-22 18:48:00,
2013-02-22 12:51:00,30.7,26.8,29.74,SW,216,0.0,0.0,85,0.00,,,0.00,VWS V13.01,2013-02-22 18:51:00,
2013-02-22 12:52:00,30.7,26.8,29.74,SW,216,0.0,0.0,85,0.00,,,0.00,VWS V13.01,2013-02-22 18:52:00,
2013-02-22 12:53:00,31.1,27.1,29.74,SW,225,4.9,4.9,85,0.00,,,0.00,VWS V13.01,2013-02-22 18:53:00,
2013-02-22 12:56:00,31.5,27.5,29.74,WSW,251,5.4,5.4,85,0.00,,,0.00,VWS V13.01,2013-02-22 18:56:00,
2013-02-22 12:57:00,31.5,27.5,29.74,West,272,5.4,5.4,85,0.00,,,0.00,VWS V13.01,2013-02-22 18:57:00,
2013-02-22 12:58:00,30.9,27.0,29.74,WSW,247,5.4,5.4,85,0.00,,,0.00,VWS V13.01,2013-02-22 18:58:00,
2013-02-22 13:01:00,31.1,27.1,29.74,West,273,3.1,3.1,85,0.00,,,0.00,VWS V13.01,2013-02-22 19:01:00,
2013-02-22 13:02:00,30.7,26.8,29.74,West,276,5.4,5.4,85,0.00,,,0.00,VWS V13.01,2013-02-22 19:02:00,
2013-02-22 13:03:00,31.5,27.5,29.74,WSW,251,3.6,3.6,85,0.00,,,0.00,VWS V13.01,2013-02-22 19:03:00,
2013-02-22 13:06:00,31.6,27.7,29.74,WSW,256,5.8,5.8,85,0.00,,,0.00,VWS V13.01,2013-02-22 19:06:00,
2013-02-22 13:07:00,31.5,27.5,29.74,WSW,256,3.6,3.6,85,0.00,,,0.00,VWS V13.01,2013-02-22 19:07:00,
2013-02-22 13:08:00,30.2,26.2,29.74,West,268,5.8,5.8,85,0.00,,,0.00,VWS V13.01,2013-02-22 19:08:00,
2013-02-22 13:12:00,30.9,27.0,29.74,West,274,10.1,10.1,85,0.00,,,0.00,VWS V13.01,2013-02-22 19:12:00,
2013-02-22 13:13:00,30.6,26.6,29.74,WSW,252,3.1,3.1,85,0.00,,,0.00,VWS V13.01,2013-02-22 19:13:00,
2013-02-22 13:17:00,28.8,24.8,29.74,SW,225,5.8,5.8,85,0.00,,,0.00,VWS V13.01,2013-02-22 19:17:00,
2013-02-22 13:18:00,29.3,25.4,29.74,West,268,4.0,4.0,85,0.00,,,0.00,VWS V13.01,2013-02-22 19:18:00,
2013-02-22 13:22:00,28.8,24.8,29.74,West,271,5.4,5.4,85,0.00,,,0.00,VWS V13.01,2013-02-22 19:22:00,
2013-02-22 13:23:00,28.8,24.8,29.74,West,260,3.1,3.1,85,0.00,,,0.00,VWS V13.01,2013-02-22 19:23:00,
2013-02-22 13:27:00,30.2,26.2,29.74,WSW,239,2.7,2.7,85,0.00,,,0.00,VWS V13.01,2013-02-22 19:27:00,
2013-02-22 13:28:00,30.4,26.4,29.74,SW,232,3.6,3.6,85,0.00,,,0.00,VWS V13.01,2013-02-22 19:28:00,
2013-02-22 13:32:00,30.9,27.0,29.74,West,275,5.4,5.4,85,0.00,,,0.00,VWS V13.01,2013-02-22 19:32:00,
2013-02-22 13:33:00,30.4,26.4,29.74,West,280,5.4,5.4,85,0.00,,,0.00,VWS V13.01,2013-02-22 19:33:00,
2013-02-22 13:37:00,30.2,26.2,29.74,West,262,3.6,3.6,85,0.00,,,0.00,VWS V13.01,2013-02-22 19:37:00,
2013-02-22 13:38:00,30.4,26.4,29.74,SW,231,3.6,3.6,85,0.00,,,0.00,VWS V13.01,2013-02-22 19:38:00,
2013-02-22 13:42:00,30.9,27.0,29.74,SW,230,5.4,5.4,85,0.00,,,0.00,VWS V13.01,2013-02-22 19:42:00,
2013-02-22 13:43:00,30.9,27.0,29.74,WSW,250,3.6,3.6,85,0.00,,,0.00,VWS V13.01,2013-02-22 19:43:00,
2013-02-22 13:47:00,31.3,27.3,29.74,SW,233,5.4,5.4,85,0.00,,,0.00,VWS V13.01,2013-02-22 19:47:00,
2013-02-22 13:48:00,31.1,27.1,29.74,WSW,257,6.3,6.3,85,0.00,,,0.00,VWS V13.01,2013-02-22 19:48:00,
2013-02-22 13:52:00,31.1,27.1,29.74,SW,218,3.1,3.1,85,0.00,,,0.00,VWS V13.01,2013-02-22 19:52:00,
2013-02-22 13:53:00,31.5,27.5,29.74,WSW,241,2.7,2.7,85,0.00,,,0.00,VWS V13.01,2013-02-22 19:53:00,
2013-02-22 13:57:00,31.1,27.1,29.74,West,281,3.1,3.1,85,0.00,,,0.00,VWS V13.01,2013-02-22 19:57:00,
2013-02-22 13:58:00,31.1,27.1,29.74,West,276,3.1,3.1,85,0.00,,,0.00,VWS V13.01,2013-02-22 19:58:00,
2013-02-22 14:02:00,30.0,26.1,29.74,West,259,7.6,7.6,85,0.00,,,0.00,VWS V13.01,2013-02-22 20:02:00,
2013-02-22 14:03:00,29.3,25.4,29.74,WNW,298,4.0,4.0,85,0.00,,,0.00,VWS V13.01,2013-02-22 20:03:00,
2013-02-22 14:07:00,29.1,25.2,29.74,WNW,293,3.1,3.1,85,0.00,,,0.00,VWS V13.01,2013-02-22 20:07:00,
2013-02-22 14:08:00,28.9,25.0,29.74,West,277,5.4,5.4,85,0.00,,,0.00,VWS V13.01,2013-02-22 20:08:00,
2013-02-22 14:13:00,29.8,25.9,29.74,WSW,256,4.0,4.0,85,0.00,,,0.00,VWS V13.01,2013-02-22 20:13:00,
2013-02-22 14:18:00,32.4,28.4,29.74,West,279,0.0,0.0,85,0.00,,,0.00,VWS V13.01,2013-02-22 20:18:00,
2013-02-22 14:23:00,34.5,28.7,29.74,WSW,253,3.6,3.6,79,0.00,,,0.00,VWS V13.01,2013-02-22 20:23:00,
2013-02-22 14:28:00,30.2,26.2,29.74,WNW,294,5.8,5.8,85,0.00,,,0.00,VWS V13.01,2013-02-22 20:28:00,
2013-02-22 14:33:00,28.2,24.3,29.74,West,266,3.6,3.6,85,0.00,,,0.00,VWS V13.01,2013-02-22 20:33:00,
2013-02-22 14:38:00,28.4,24.5,29.74,SW,219,3.6,3.6,85,0.00,,,0.00,VWS V13.01,2013-02-22 20:38:00,
2013-02-22 14:43:00,29.3,25.4,29.74,West,270,5.8,5.8,85,0.00,,,0.00,VWS V13.01,2013-02-22 20:43:00,
2013-02-22 14:48:00,28.8,24.8,29.74,West,266,7.6,7.6,85,0.00,,,0.00,VWS V13.01,2013-02-22 20:48:00,
2013-02-22 14:53:00,30.2,26.2,29.74,West,259,3.6,3.6,85,0.00,,,0.00,VWS V13.01,2013-02-22 20:53:00,
2013-02-22 14:58:00,30.2,26.2,29.74,WSW,256,4.9,4.9,85,0.00,,,0.00,VWS V13.01,2013-02-22 20:58:00,
2013-02-22 14:59:00,30.2,26.2,29.74,WSW,256,0.0,0.0,85,0.00,,,0.00,VWS V13.01,2013-02-22 20:59:00,
2013-02-22 15:03:00,29.5,25.5,29.74,WNW,289,4.0,4.0,85,0.00,,,0.00,VWS V13.01,2013-02-22 21:03:00,
2013-02-22 15:04:00,29.5,25.5,29.74,WNW,289,0.0,0.0,85,0.00,,,0.00,VWS V13.01,2013-02-22 21:04:00,
2013-02-22 15:08:00,29.3,25.4,29.74,WNW,282,8.1,8.1,85,0.00,,,0.00,VWS V13.01,2013-02-22 21:08:00,
2013-02-22 15:09:00,29.3,25.4,29.74,WNW,282,8.1,8.1,85,0.00,,,0.00,VWS V13.01,2013-02-22 21:09:00,
2013-02-22 15:13:00,29.5,25.5,29.74,West,262,3.1,3.1,85,0.00,,,0.00,VWS V13.01,2013-02-22 21:13:00,
2013-02-22 15:14:00,29.5,25.5,29.74,West,262,3.6,3.6,85,0.00,,,0.00,VWS V13.01,2013-02-22 21:14:00,
2013-02-22 15:18:00,29.8,25.9,29.74,WNW,283,4.9,4.9,85,0.00,,,0.00,VWS V13.01,2013-02-22 21:18:00,
2013-02-22 15:19:00,29.8,25.9,29.74,WSW,249,2.7,2.7,85,0.00,,,0.00,VWS V13.01,2013-02-22 21:19:00,
2013-02-22 15:23:00,30.6,26.6,29.74,WSW,252,3.6,3.6,85,0.00,,,0.00,VWS V13.01,2013-02-22 21:23:00,
2013-02-22 15:24:00,30.6,26.6,29.74,West,262,3.1,3.1,85,0.00,,,0.00,VWS V13.01,2013-02-22 21:24:00,
2013-02-22 15:28:00,30.4,26.4,29.74,WSW,257,4.0,4.0,85,0.00,,,0.00,VWS V13.01,2013-02-22 21:28:00,
2013-02-22 15:29:00,30.9,27.0,29.74,WSW,252,4.0,4.0,85,0.00,,,0.00,VWS V13.01,2013-02-22 21:29:00,
2013-02-22 15:34:00,30.6,26.6,29.74,WSW,237,6.3,6.3,85,0.00,,,0.00,VWS V13.01,2013-02-22 21:34:00,
2013-02-22 15:39:00,29.8,25.9,29.74,West,279,3.6,3.6,85,0.00,,,0.00,VWS V13.01,2013-02-22 21:39:00,
2013-02-22 15:44:00,28.2,24.3,29.74,West,259,4.0,4.0,85,0.00,,,0.00,VWS V13.01,2013-02-22 21:44:00,
2013-02-22 15:46:00,28.6,24.6,29.74,West,277,4.9,4.9,85,0.00,,,0.00,VWS V13.01,2013-02-22 21:46:00,
2013-02-22 15:49:00,29.1,25.2,29.74,West,271,0.0,0.0,85,0.00,,,0.00,VWS V13.01,2013-02-22 21:49:00,
2013-02-22 15:51:00,28.6,24.6,29.74,West,264,3.6,3.6,85,0.00,,,0.00,VWS V13.01,2013-02-22 21:51:00,
2013-02-22 15:54:00,28.4,24.5,29.74,WSW,257,3.1,3.1,85,0.00,,,0.00,VWS V13.01,2013-02-22 21:54:00,
2013-02-22 15:56:00,29.1,25.2,29.74,West,263,0.0,0.0,85,0.00,,,0.00,VWS V13.01,2013-02-22 21:56:00,
2013-02-22 15:59:00,29.1,25.2,29.74,WSW,256,0.0,0.0,85,0.00,,,0.00,VWS V13.01,2013-02-22 21:59:00,
2013-02-22 16:01:00,29.5,25.5,29.74,WSW,255,0.0,0.0,85,0.00,,,0.00,VWS V13.01,2013-02-22 22:01:00,
2013-02-22 16:04:00,30.4,26.4,29.74,WNW,286,0.0,0.0,85,0.00,,,0.00,VWS V13.01,2013-02-22 22:04:00,
2013-02-22 16:06:00,30.6,26.6,29.74,West,269,4.0,4.0,85,0.00,,,0.00,VWS V13.01,2013-02-22 22:06:00,
2013-02-22 16:09:00,29.7,25.7,29.74,NW,304,2.7,2.7,85,0.00,,,0.00,VWS V13.01,2013-02-22 22:09:00,
2013-02-22 16:11:00,29.8,25.9,29.74,West,266,3.6,3.6,85,0.00,,,0.00,VWS V13.01,2013-02-22 22:11:00,
2013-02-22 16:14:00,29.7,25.7,29.74,West,267,5.4,5.4,85,0.00,,,0.00,VWS V13.01,2013-02-22 22:14:00,
2013-02-22 16:16:00,29.5,25.5,29.74,West,277,2.7,2.7,85,0.00,,,0.00,VWS V13.01,2013-02-22 22:16:00,
2013-02-22 16:19:00,28.9,25.0,29.74,WSW,257,6.3,6.3,85,0.00,,,0.00,VWS V13.01,2013-02-22 22:19:00,
2013-02-22 16:21:00,28.6,24.6,29.74,West,270,3.1,3.1,85,0.00,,,0.00,VWS V13.01,2013-02-22 22:21:00,
2013-02-22 16:24:00,27.5,23.6,29.74,SW,214,3.6,3.6,85,0.00,,,0.00,VWS V13.01,2013-02-22 22:24:00,
2013-02-22 16:26:00,27.3,23.4,29.74,WSW,257,5.8,5.8,85,0.00,,,0.00,VWS V13.01,2013-02-22 22:26:00,
2013-02-22 16:29:00,26.6,24.3,29.74,SW,228,3.1,3.1,91,0.00,,,0.00,VWS V13.01,2013-02-22 22:29:00,
2013-02-22 16:31:00,27.5,23.6,29.74,WSW,257,2.7,2.7,85,0.00,,,0.00,VWS V13.01,2013-02-22 22:31:00,
2013-02-22 16:34:00,27.0,23.1,29.74,West,264,3.1,3.1,85,0.00,,,0.00,VWS V13.01,2013-02-22 22:34:00,
2013-02-22 16:36:00,27.0,23.1,29.74,WSW,251,3.6,3.6,85,0.00,,,0.00,VWS V13.01,2013-02-22 22:36:00,
2013-02-22 16:39:00,26.6,24.3,29.74,WSW,250,3.6,3.6,91,0.00,,,0.00,VWS V13.01,2013-02-22 22:39:00,
2013-02-22 16:41:00,26.4,24.1,29.74,West,261,3.6,3.6,91,0.00,,,0.00,VWS V13.01,2013-02-22 22:41:00,
2013-02-22 16:44:00,26.4,24.1,29.74,West,265,0.0,0.0,91,0.00,,,0.00,VWS V13.01,2013-02-22 22:44:00,
2013-02-22 16:46:00,26.4,24.1,29.74,WSW,238,0.0,0.0,91,0.00,,,0.00,VWS V13.01,2013-02-22 22:46:00,
2013-02-22 16:49:00,26.6,24.3,29.74,WSW,238,0.0,0.0,91,0.00,,,0.00,VWS V13.01,2013-02-22 22:49:00,
2013-02-22 16:51:00,26.2,24.0,29.74,WSW,243,0.0,0.0,91,0.00,,,0.00,VWS V13.01,2013-02-22 22:51:00,
2013-02-22 16:54:00,26.8,22.9,29.74,West,280,2.2,2.2,85,0.00,,,0.00,VWS V13.01,2013-02-22 22:54:00,
2013-02-22 16:56:00,26.6,24.3,29.74,West,265,2.2,2.2,91,0.00,,,0.00,VWS V13.01,2013-02-22 22:56:00,
2013-02-22 16:59:00,27.0,23.1,29.74,West,268,0.0,0.0,85,0.00,,,0.00,VWS V13.01,2013-02-22 22:59:00,
2013-02-22 17:01:00,26.8,22.9,29.74,WSW,257,2.2,2.2,85,0.00,,,0.00,VWS V13.01,2013-02-22 23:01:00,
2013-02-22 17:04:00,27.3,23.4,29.74,West,260,0.0,0.0,85,0.00,,,0.00,VWS V13.01,2013-02-22 23:04:00,
2013-02-22 17:06:00,27.0,23.1,29.74,West,273,2.7,2.7,85,0.00,,,0.00,VWS V13.01,2013-02-22 23:06:00,
2013-02-22 17:07:00,27.0,23.1,29.74,West,262,2.7,2.7,85,0.00,,,0.00,VWS V13.01,2013-02-22 23:07:00,
2013-02-22 17:09:00,26.4,24.1,29.74,West,264,0.0,0.0,91,0.00,,,0.00,VWS V13.01,2013-02-22 23:09:00,
2013-02-22 17:11:00,26.6,24.3,29.74,West,265,4.9,4.9,91,0.00,,,0.00,VWS V13.01,2013-02-22 23:11:00,
2013-02-22 17:12:00,26.4,24.1,29.74,West,265,2.7,2.7,91,0.00,,,0.00,VWS V13.01,2013-02-22 23:12:00,
2013-02-22 17:14:00,26.1,23.8,29.74,West,264,0.0,0.0,91,0.00,,,0.00,VWS V13.01,2013-02-22 23:14:00,
2013-02-22 17:16:00,25.5,23.3,29.74,West,265,0.0,0.0,91,0.00,,,0.00,VWS V13.01,2013-02-22 23:16:00,
2013-02-22 17:17:00,25.9,23.6,29.74,West,265,0.0,0.0,91,0.00,,,0.00,VWS V13.01,2013-02-22 23:17:00,
2013-02-22 17:19:00,25.5,23.3,29.74,West,265,0.0,0.0,91,0.00,,,0.00,VWS V13.01,2013-02-22 23:19:00,
2013-02-22 17:21:00,25.5,23.3,29.74,West,265,0.0,0.0,91,0.00,,,0.00,VWS V13.01,2013-02-22 23:21:00,
2013-02-22 17:22:00,25.3,23.1,29.74,West,265,0.0,0.0,91,0.00,,,0.00,VWS V13.01,2013-02-22 23:22:00,
2013-02-22 17:24:00,25.5,23.3,29.74,West,264,0.0,0.0,91,0.00,,,0.00,VWS V13.01,2013-02-22 23:24:00,
2013-02-22 17:26:00,25.3,23.1,29.74,West,264,0.0,0.0,91,0.00,,,0.00,VWS V13.01,2013-02-22 23:26:00,
2013-02-22 17:27:00,25.5,23.3,29.74,West,264,0.0,0.0,91,0.00,,,0.00,VWS V13.01,2013-02-22 23:27:00,
2013-02-22 17:29:00,25.3,23.1,29.74,West,265,0.0,0.0,91,0.00,,,0.00,VWS V13.01,2013-02-22 23:29:00,
2013-02-22 17:31:00,25.3,23.1,29.74,West,264,0.0,0.0,91,0.00,,,0.00,VWS V13.01,2013-02-22 23:31:00,
2013-02-22 17:32:00,25.3,23.1,29.74,West,264,0.0,0.0,91,0.00,,,0.00,VWS V13.01,2013-02-22 23:32:00,
2013-02-22 17:34:00,25.0,22.7,29.74,West,264,0.0,0.0,91,0.00,,,0.00,VWS V13.01,2013-02-22 23:34:00,
2013-02-22 17:35:00,25.0,22.7,29.74,West,265,0.0,0.0,91,0.00,,,0.00,VWS V13.01,2013-02-22 23:35:00,
2013-02-22 17:36:00,24.6,22.4,29.74,West,264,0.0,0.0,91,0.00,,,0.00,VWS V13.01,2013-02-22 23:36:00,
2013-02-22 17:37:00,24.4,22.2,29.74,West,265,0.0,0.0,91,0.00,,,0.00,VWS V13.01,2013-02-22 23:37:00,
2013-02-22 17:39:00,23.7,21.5,29.74,West,265,0.0,0.0,91,0.00,,,0.00,VWS V13.01,2013-02-22 23:39:00,
2013-02-22 17:40:00,23.7,21.5,29.74,West,264,0.0,0.0,91,0.00,,,0.00,VWS V13.01,2013-02-22 23:40:00,
2013-02-22 17:41:00,23.5,21.3,29.74,West,265,0.0,0.0,91,0.00,,,0.00,VWS V13.01,2013-02-22 23:41:00,
2013-02-22 17:42:00,23.5,21.3,29.74,West,265,0.0,0.0,91,0.00,,,0.00,VWS V13.01,2013-02-22 23:42:00,
2013-02-22 17:45:00,23.0,22.3,29.74,West,264,0.0,0.0,97,0.00,,,0.00,VWS V13.01,2013-02-22 23:45:00,
2013-02-22 17:46:00,22.8,22.1,29.74,West,264,0.0,0.0,97,0.00,,,0.00,VWS V13.01,2013-02-22 23:46:00,
2013-02-22 17:47:00,22.6,21.9,29.74,West,265,0.0,0.0,97,0.00,,,0.00,VWS V13.01,2013-02-22 23:47:00,
2013-02-22 17:50:00,22.5,21.7,29.74,West,265,0.0,0.0,97,0.00,,,0.00,VWS V13.01,2013-02-22 23:50:00,
2013-02-22 17:51:00,22.5,21.7,29.74,West,264,0.0,0.0,97,0.00,,,0.00,VWS V13.01,2013-02-22 23:51:00,
2013-02-22 17:52:00,22.3,21.6,29.74,West,264,0.0,0.0,97,0.00,,,0.00,VWS V13.01,2013-02-22 23:52:00,
2013-02-22 17:55:00,22.1,21.4,29.74,West,264,0.0,0.0,97,0.00,,,0.00,VWS V13.01,2013-02-22 23:55:00,
2013-02-22 17:56:00,21.9,21.2,29.77,West,264,0.0,0.0,97,0.00,,,0.00,VWS V13.01,2013-02-22 23:56:00,
2013-02-22 17:57:00,21.9,21.2,29.77,West,264,0.0,0.0,97,0.00,,,0.00,VWS V13.01,2013-02-22 23:57:00,
2013-02-22 18:00:00,21.7,21.0,29.77,West,264,0.0,0.0,97,0.00,,,0.00,VWS V13.01,2013-02-23 00:00:00,
2013-02-22 18:02:00,21.6,20.8,29.77,West,265,0.0,0.0,97,0.00,,,0.00,VWS V13.01,2013-02-23 00:02:00,
2013-02-22 18:05:00,21.4,20.7,29.77,West,264,0.0,0.0,97,0.00,,,0.00,VWS V13.01,2013-02-23 00:05:00,
2013-02-22 18:07:00,21.2,20.5,29.77,West,264,0.0,0.0,97,0.00,,,0.00,VWS V13.01,2013-02-23 00:07:00,
2013-02-22 18:10:00,21.0,20.3,29.77,West,264,0.0,0.0,97,0.00,,,0.00,VWS V13.01,2013-02-23 00:10:00,
2013-02-22 18:12:00,21.0,20.3,29.77,West,264,0.0,0.0,97,0.00,,,0.00,VWS V13.01,2013-02-23 00:12:00,
2013-02-22 18:15:00,21.0,20.3,29.77,West,264,0.0,0.0,97,0.00,,,0.00,VWS V13.01,2013-02-23 00:15:00,
2013-02-22 18:17:00,20.8,20.1,29.77,West,264,0.0,0.0,97,0.00,,,0.00,VWS V13.01,2013-02-23 00:17:00,
2013-02-22 18:20:00,20.8,20.1,29.77,West,265,0.0,0.0,97,0.00,,,0.00,VWS V13.01,2013-02-23 00:20:00,
2013-02-22 18:22:00,20.8,20.1,29.77,West,264,0.0,0.0,97,0.00,,,0.00,VWS V13.01,2013-02-23 00:22:00,
2013-02-22 18:25:00,20.5,19.8,29.77,West,264,0.0,0.0,97,0.00,,,0.00,VWS V13.01,2013-02-23 00:25:00,
2013-02-22 18:27:00,20.5,19.8,29.77,West,264,0.0,0.0,97,0.00,,,0.00,VWS V13.01,2013-02-23 00:27:00,
2013-02-22 18:30:00,20.7,19.9,29.77,West,264,0.0,0.0,97,0.00,,,0.00,VWS V13.01,2013-02-23 00:30:00,
2013-02-22 18:32:00,20.7,19.9,29.77,West,264,0.0,0.0,97,0.00,,,0.00,VWS V13.01,2013-02-23 00:32:00,
2013-02-22 18:35:00,20.3,19.6,29.77,West,265,0.0,0.0,97,0.00,,,0.00,VWS V13.01,2013-02-23 00:35:00,
2013-02-22 18:37:00,20.1,19.4,29.77,West,265,0.0,0.0,97,0.00,,,0.00,VWS V13.01,2013-02-23 00:37:00,
2013-02-22 18:40:00,19.9,19.2,29.77,West,264,0.0,0.0,97,0.00,,,0.00,VWS V13.01,2013-02-23 00:40:00,
2013-02-22 18:42:00,19.8,19.0,29.77,West,265,0.0,0.0,97,0.00,,,0.00,VWS V13.01,2013-02-23 00:42:00,
2013-02-22 18:43:00,19.8,19.0,29.77,West,264,0.0,0.0,97,0.00,,,0.00,VWS V13.01,2013-02-23 00:43:00,
2013-02-22 18:45:00,19.8,19.0,29.77,West,264,0.0,0.0,97,0.00,,,0.00,VWS V13.01,2013-02-23 00:45:00,
2013-02-22 18:47:00,19.8,19.0,29.77,West,264,0.0,0.0,97,0.00,,,0.00,VWS V13.01,2013-02-23 00:47:00,
2013-02-22 18:48:00,19.8,19.0,29.77,West,264,0.0,0.0,97,0.00,,,0.00,VWS V13.01,2013-02-23 00:48:00,
2013-02-22 18:50:00,19.9,19.2,29.77,West,265,0.0,0.0,97,0.00,,,0.00,VWS V13.01,2013-02-23 00:50:00,
2013-02-22 18:52:00,19.9,19.2,29.77,West,264,0.0,0.0,97,0.00,,,0.00,VWS V13.01,2013-02-23 00:52:00,
2013-02-22 18:53:00,19.9,19.2,29.77,West,264,0.0,0.0,97,0.00,,,0.00,VWS V13.01,2013-02-23 00:53:00,
2013-02-22 18:55:00,19.9,19.2,29.77,West,264,0.0,0.0,97,0.00,,,0.00,VWS V13.01,2013-02-23 00:55:00,
2013-02-22 18:56:00,19.9,19.2,29.77,West,264,0.0,0.0,97,0.00,,,0.00,VWS V13.01,2013-02-23 00:56:00,
2013-02-22 18:57:00,19.9,19.2,29.77,West,264,0.0,0.0,97,0.00,,,0.00,VWS V13.01,2013-02-23 00:57:00,
2013-02-22 18:58:00,19.9,19.2,29.77,West,264,0.0,0.0,97,0.00,,,0.00,VWS V13.01,2013-02-23 00:58:00,
2013-02-22 19:00:00,19.8,19.0,29.77,West,264,0.0,0.0,97,0.00,,,0.00,VWS V13.01,2013-02-23 01:00:00,
2013-02-22 19:01:00,19.8,19.0,29.77,West,264,0.0,0.0,97,0.00,,,0.00,VWS V13.01,2013-02-23 01:01:00,
2013-02-22 19:02:00,19.8,19.0,29.77,West,264,0.0,0.0,97,0.00,,,0.00,VWS V13.01,2013-02-23 01:02:00,
2013-02-22 19:03:00,19.8,19.0,29.77,West,265,0.0,0.0,97,0.00,,,0.00,VWS V13.01,2013-02-23 01:03:00,
2013-02-22 19:05:00,19.8,19.0,29.77,West,265,0.0,0.0,97,0.00,,,0.00,VWS V13.01,2013-02-23 01:05:00,
2013-02-22 19:06:00,19.8,19.0,29.77,West,264,0.0,0.0,97,0.00,,,0.00,VWS V13.01,2013-02-23 01:06:00,
2013-02-22 19:07:00,19.8,19.0,29.77,West,265,0.0,0.0,97,0.00,,,0.00,VWS V13.01,2013-02-23 01:07:00,
2013-02-22 19:08:00,19.8,19.0,29.77,West,265,0.0,0.0,97,0.00,,,0.00,VWS V13.01,2013-02-23 01:08:00,
2013-02-22 19:10:00,19.6,18.9,29.77,West,264,0.0,0.0,97,0.00,,,0.00,VWS V13.01,2013-02-23 01:10:00,
2013-02-22 19:11:00,19.6,18.9,29.77,West,265,0.0,0.0,97,0.00,,,0.00,VWS V13.01,2013-02-23 01:11:00,
2013-02-22 19:12:00,19.6,18.9,29.77,West,265,0.0,0.0,97,0.00,,,0.00,VWS V13.01,2013-02-23 01:12:00,
2013-02-22 19:13:00,19.6,18.9,29.77,West,264,0.0,0.0,97,0.00,,,0.00,VWS V13.01,2013-02-23 01:13:00,
2013-02-22 19:16:00,19.6,18.9,29.77,West,265,0.0,0.0,97,0.00,,,0.00,VWS V13.01,2013-02-23 01:16:00,
2013-02-22 19:17:00,19.6,18.9,29.77,West,264,0.0,0.0,97,0.00,,,0.00,VWS V13.01,2013-02-23 01:17:00,
2013-02-22 19:18:00,19.4,18.7,29.77,West,265,0.0,0.0,97,0.00,,,0.00,VWS V13.01,2013-02-23 01:18:00,
2013-02-22 19:21:00,19.6,18.9,29.77,West,264,0.0,0.0,97,0.00,,,0.00,VWS V13.01,2013-02-23 01:21:00,
2013-02-22 19:22:00,19.6,18.9,29.77,West,265,0.0,0.0,97,0.00,,,0.00,VWS V13.01,2013-02-23 01:22:00,
2013-02-22 19:23:00,19.6,19.6,29.77,West,265,0.0,0.0,100,0.00,,,0.00,VWS V13.01,2013-02-23 01:23:00,
2013-02-22 19:26:00,19.6,19.6,29.77,West,264,0.0,0.0,100,0.00,,,0.00,VWS V13.01,2013-02-23 01:26:00,
2013-02-22 19:27:00,19.6,19.6,29.77,West,265,0.0,0.0,100,0.00,,,0.00,VWS V13.01,2013-02-23 01:27:00,
2013-02-22 19:28:00,19.6,19.6,29.77,West,265,0.0,0.0,100,0.00,,,0.00,VWS V13.01,2013-02-23 01:28:00,
2013-02-22 19:31:00,19.6,18.9,29.77,West,265,0.0,0.0,97,0.00,,,0.00,VWS V13.01,2013-02-23 01:31:00,
2013-02-22 19:32:00,19.6,18.9,29.77,West,264,0.0,0.0,97,0.00,,,0.00,VWS V13.01,2013-02-23 01:32:00,
2013-02-22 19:33:00,19.4,18.7,29.77,West,264,0.0,0.0,97,0.00,,,0.00,VWS V13.01,2013-02-23 01:33:00,
2013-02-22 19:36:00,19.4,18.7,29.77,West,264,0.0,0.0,97,0.00,,,0.00,VWS V13.01,2013-02-23 01:36:00,
2013-02-22 19:37:00,19.4,18.7,29.77,West,265,0.0,0.0,97,0.00,,,0.00,VWS V13.01,2013-02-23 01:37:00,
2013-02-22 19:38:00,19.2,18.5,29.77,West,265,0.0,0.0,97,0.00,,,0.00,VWS V13.01,2013-02-23 01:38:00,
2013-02-22 19:41:00,19.2,18.5,29.77,West,264,0.0,0.0,97,0.00,,,0.00,VWS V13.01,2013-02-23 01:41:00,
2013-02-22 19:42:00,19.0,18.3,29.80,West,265,0.0,0.0,97,0.00,,,0.00,VWS V13.01,2013-02-23 01:42:00,
2013-02-22 19:43:00,19.0,18.3,29.80,West,265,0.0,0.0,97,0.00,,,0.00,VWS V13.01,2013-02-23 01:43:00,
2013-02-22 19:46:00,18.9,18.1,29.80,West,265,0.0,0.0,97,0.00,,,0.00,VWS V13.01,2013-02-23 01:46:00,
2013-02-22 19:47:00,18.9,18.9,29.80,West,264,0.0,0.0,100,0.00,,,0.00,VWS V13.01,2013-02-23 01:47:00,
2013-02-22 19:48:00,19.0,19.0,29.80,West,264,0.0,0.0,100,0.00,,,0.00,VWS V13.01,2013-02-23 01:48:00,
2013-02-22 19:51:00,19.0,19.0,29.80,West,264,0.0,0.0,100,0.00,,,0.00,VWS V13.01,2013-02-23 01:51:00,
2013-02-22 19:52:00,19.0,19.0,29.80,West,265,0.0,0.0,100,0.00,,,0.00,VWS V13.01,2013-02-23 01:52:00,
2013-02-22 19:53:00,19.0,19.0,29.80,West,264,0.0,0.0,100,0.00,,,0.00,VWS V13.01,2013-02-23 01:53:00,
2013-02-22 19:56:00,18.9,18.9,29.80,West,264,0.0,0.0,100,0.00,,,0.00,VWS V13.01,2013-02-23 01:56:00,
2013-02-22 19:57:00,19.0,19.0,29.77,West,265,0.0,0.0,100,0.00,,,0.00,VWS V13.01,2013-02-23 01:57:00,
2013-02-22 19:58:00,19.0,19.0,29.77,West,264,0.0,0.0,100,0.00,,,0.00,VWS V13.01,2013-02-23 01:58:00,
2013-02-22 20:01:00,18.7,18.7,29.77,West,264,0.0,0.0,100,0.00,,,0.00,VWS V13.01,2013-02-23 02:01:00,
2013-02-22 20:02:00,18.9,18.9,29.77,West,265,0.0,0.0,100,0.00,,,0.00,VWS V13.01,2013-02-23 02:02:00,
2013-02-22 20:03:00,18.9,18.9,29.77,West,265,0.0,0.0,100,0.00,,,0.00,VWS V13.01,2013-02-23 02:03:00,
2013-02-22 20:06:00,18.7,18.0,29.77,West,264,0.0,0.0,97,0.00,,,0.00,VWS V13.01,2013-02-23 02:06:00,
2013-02-22 20:07:00,18.7,18.0,29.77,West,264,0.0,0.0,97,0.00,,,0.00,VWS V13.01,2013-02-23 02:07:00,
2013-02-22 20:08:00,18.7,18.0,29.77,West,265,0.0,0.0,97,0.00,,,0.00,VWS V13.01,2013-02-23 02:08:00,
2013-02-22 20:11:00,18.7,18.7,29.77,West,264,0.0,0.0,100,0.00,,,0.00,VWS V13.01,2013-02-23 02:11:00,
2013-02-22 20:12:00,18.7,18.7,29.77,West,264,0.0,0.0,100,0.00,,,0.00,VWS V13.01,2013-02-23 02:12:00,
2013-02-22 20:13:00,18.7,18.7,29.77,West,265,0.0,0.0,100,0.00,,,0.00,VWS V13.01,2013-02-23 02:13:00,
2013-02-22 20:16:00,18.5,18.5,29.77,West,265,0.0,0.0,100,0.00,,,0.00,VWS V13.01,2013-02-23 02:16:00,
2013-02-22 20:17:00,18.5,18.5,29.77,West,264,0.0,0.0,100,0.00,,,0.00,VWS V13.01,2013-02-23 02:17:00,
2013-02-22 20:18:00,18.5,18.5,29.77,West,264,0.0,0.0,100,0.00,,,0.00,VWS V13.01,2013-02-23 02:18:00,
2013-02-22 20:22:00,18.5,18.5,29.77,West,265,0.0,0.0,100,0.00,,,0.00,VWS V13.01,2013-02-23 02:22:00,
2013-02-22 20:23:00,18.3,18.3,29.77,West,264,0.0,0.0,100,0.00,,,0.00,VWS V13.01,2013-02-23 02:23:00,
2013-02-22 20:26:00,18.3,18.3,29.77,West,265,0.0,0.0,100,0.00,,,0.00,VWS V13.01,2013-02-23 02:26:00,
2013-02-22 20:27:00,18.3,18.3,29.77,West,265,0.0,0.0,100,0.00,,,0.00,VWS V13.01,2013-02-23 02:27:00,
2013-02-22 20:29:00,18.3,18.3,29.77,West,264,0.0,0.0,100,0.00,,,0.00,VWS V13.01,2013-02-23 02:29:00,
2013-02-22 20:32:00,18.3,18.3,29.77,West,264,0.0,0.0,100,0.00,,,0.00,VWS V13.01,2013-02-23 02:32:00,
2013-02-22 20:34:00,18.3,18.3,29.77,West,264,0.0,0.0,100,0.00,,,0.00,VWS V13.01,2013-02-23 02:34:00,
2013-02-22 20:37:00,18.3,18.3,29.77,West,265,0.0,0.0,100,0.00,,,0.00,VWS V13.01,2013-02-23 02:37:00,
2013-02-22 20:39:00,18.1,18.1,29.77,West,265,0.0,0.0,100,0.00,,,0.00,VWS V13.01,2013-02-23 02:39:00,
2013-02-22 20:42:00,18.1,18.1,29.77,West,265,0.0,0.0,100,0.00,,,0.00,VWS V13.01,2013-02-23 02:42:00,
2013-02-22 20:44:00,18.0,18.0,29.77,West,265,0.0,0.0,100,0.00,,,0.00,VWS V13.01,2013-02-23 02:44:00,
2013-02-22 20:47:00,18.0,18.0,29.77,West,264,0.0,0.0,100,0.00,,,0.00,VWS V13.01,2013-02-23 02:47:00,
2013-02-22 20:49:00,17.8,17.8,29.77,West,265,0.0,0.0,100,0.00,,,0.00,VWS V13.01,2013-02-23 02:49:00,
2013-02-22 20:52:00,17.6,17.6,29.77,West,264,0.0,0.0,100,0.00,,,0.00,VWS V13.01,2013-02-23 02:52:00,
2013-02-22 20:53:00,17.6,17.6,29.77,West,264,0.0,0.0,100,0.00,,,0.00,VWS V13.01,2013-02-23 02:53:00,
2013-02-22 20:54:00,17.6,17.6,29.77,West,265,0.0,0.0,100,0.00,,,0.00,VWS V13.01,2013-02-23 02:54:00,
2013-02-22 20:57:00,17.8,17.8,29.77,West,265,0.0,0.0,100,0.00,,,0.00,VWS V13.01,2013-02-23 02:57:00,
2013-02-22 20:58:00,17.8,17.8,29.77,West,265,0.0,0.0,100,0.00,,,0.00,VWS V13.01,2013-02-23 02:58:00,
2013-02-22 20:59:00,17.8,17.8,29.77,West,265,0.0,0.0,100,0.00,,,0.00,VWS V13.01,2013-02-23 02:59:00,
2013-02-22 21:02:00,17.8,17.8,29.77,West,265,0.0,0.0,100,0.00,,,0.00,VWS V13.01,2013-02-23 03:02:00,
2013-02-22 21:03:00,17.8,17.8,29.77,West,264,0.0,0.0,100,0.00,,,0.00,VWS V13.01,2013-02-23 03:03:00,
2013-02-22 21:04:00,17.8,17.8,29.77,West,264,0.0,0.0,100,0.00,,,0.00,VWS V13.01,2013-02-23 03:04:00,
2013-02-22 21:07:00,18.0,18.0,29.77,West,265,0.0,0.0,100,0.00,,,0.00,VWS V13.01,2013-02-23 03:07:00,
2013-02-22 21:08:00,18.3,18.3,29.77,West,265,0.0,0.0,100,0.00,,,0.00,VWS V13.01,2013-02-23 03:08:00,
2013-02-22 21:09:00,18.5,18.5,29.77,West,265,0.0,0.0,100,0.00,,,0.00,VWS V13.01,2013-02-23 03:09:00,
2013-02-22 21:12:00,18.7,18.7,29.77,West,264,0.0,0.0,100,0.00,,,0.00,VWS V13.01,2013-02-23 03:12:00,
2013-02-22 21:13:00,18.7,18.7,29.77,West,264,0.0,0.0,100,0.00,,,0.00,VWS V13.01,2013-02-23 03:13:00,
2013-02-22 21:14:00,18.5,18.5,29.77,West,264,0.0,0.0,100,0.00,,,0.00,VWS V13.01,2013-02-23 03:14:00,
2013-02-22 21:17:00,18.1,17.4,29.77,West,264,0.0,0.0,97,0.00,,,0.00,VWS V13.01,2013-02-23 03:17:00,
2013-02-22 21:18:00,18.1,17.4,29.77,West,265,0.0,0.0,97,0.00,,,0.00,VWS V13.01,2013-02-23 03:18:00,
2013-02-22 21:19:00,18.0,18.0,29.77,West,265,0.0,0.0,100,0.00,,,0.00,VWS V13.01,2013-02-23 03:19:00,
2013-02-22 21:22:00,18.0,18.0,29.77,West,265,0.0,0.0,100,0.00,,,0.00,VWS V13.01,2013-02-23 03:22:00,
2013-02-22 21:23:00,17.8,17.8,29.77,West,265,0.0,0.0,100,0.00,,,0.00,VWS V13.01,2013-02-23 03:23:00,
2013-02-22 21:24:00,17.8,17.8,29.77,West,264,0.0,0.0,100,0.00,,,0.00,VWS V13.01,2013-02-23 03:24:00,
2013-02-22 21:27:00,17.6,17.6,29.77,West,265,0.0,0.0,100,0.00,,,0.00,VWS V13.01,2013-02-23 03:27:00,
2013-02-22 21:28:00,17.6,17.6,29.77,West,264,0.0,0.0,100,0.00,,,0.00,VWS V13.01,2013-02-23 03:28:00,
2013-02-22 21:29:00,17.4,17.4,29.77,West,264,0.0,0.0,100,0.00,,,0.00,VWS V13.01,2013-02-23 03:29:00,
2013-02-22 21:32:00,17.1,17.1,29.77,West,265,0.0,0.0,100,0.00,,,0.00,VWS V13.01,2013-02-23 03:32:00,
2013-02-22 21:33:00,17.1,17.1,29.77,West,264,0.0,0.0,100,0.00,,,0.00,VWS V13.01,2013-02-23 03:33:00,
2013-02-22 21:34:00,17.1,17.1,29.77,West,264,0.0,0.0,100,0.00,,,0.00,VWS V13.01,2013-02-23 03:34:00,
2013-02-22 21:37:00,17.1,17.1,29.77,West,265,0.0,0.0,100,0.00,,,0.00,VWS V13.01,2013-02-23 03:37:00,
2013-02-22 21:38:00,17.2,17.2,29.77,West,264,0.0,0.0,100,0.00,,,0.00,VWS V13.01,2013-02-23 03:38:00,
2013-02-22 21:39:00,17.2,17.2,29.77,West,264,0.0,0.0,100,0.00,,,0.00,VWS V13.01,2013-02-23 03:39:00,
2013-02-22 21:42:00,17.4,17.4,29.77,West,264,0.0,0.0,100,0.00,,,0.00,VWS V13.01,2013-02-23 03:42:00,
2013-02-22 21:43:00,17.2,17.2,29.77,West,265,0.0,0.0,100,0.00,,,0.00,VWS V13.01,2013-02-23 03:43:00,
2013-02-22 21:44:00,17.1,17.1,29.77,West,264,0.0,0.0,100,0.00,,,0.00,VWS V13.01,2013-02-23 03:44:00,
2013-02-22 21:47:00,16.9,16.9,29.77,West,265,0.0,0.0,100,0.00,,,0.00,VWS V13.01,2013-02-23 03:47:00,
2013-02-22 21:48:00,16.9,16.9,29.77,West,265,0.0,0.0,100,0.00,,,0.00,VWS V13.01,2013-02-23 03:48:00,
2013-02-22 21:49:00,16.7,16.7,29.77,West,264,0.0,0.0,100,0.00,,,0.00,VWS V13.01,2013-02-23 03:49:00,
2013-02-22 21:52:00,16.5,16.5,29.77,West,265,0.0,0.0,100,0.00,,,0.00,VWS V13.01,2013-02-23 03:52:00,
2013-02-22 21:53:00,16.5,16.5,29.77,West,264,0.0,0.0,100,0.00,,,0.00,VWS V13.01,2013-02-23 03:53:00,
2013-02-22 21:54:00,16.5,16.5,29.77,West,264,0.0,0.0,100,0.00,,,0.00,VWS V13.01,2013-02-23 03:54:00,
2013-02-22 21:57:00,16.3,16.3,29.77,West,265,0.0,0.0,100,0.00,,,0.00,VWS V13.01,2013-02-23 03:57:00,
2013-02-22 21:58:00,16.3,16.3,29.77,West,265,0.0,0.0,100,0.00,,,0.00,VWS V13.01,2013-02-23 03:58:00,
2013-02-22 21:59:00,16.2,16.2,29.77,West,264,0.0,0.0,100,0.00,,,0.00,VWS V13.01,2013-02-23 03:59:00,
2013-02-22 22:03:00,16.2,16.2,29.77,West,265,0.0,0.0,100,0.00,,,0.00,VWS V13.01,2013-02-23 04:03:00,
2013-02-22 22:05:00,16.3,16.3,29.77,West,265,0.0,0.0,100,0.00,,,0.00,VWS V13.01,2013-02-23 04:05:00,
2013-02-22 22:08:00,16.5,16.5,29.77,West,264,0.0,0.0,100,0.00,,,0.00,VWS V13.01,2013-02-23 04:08:00,
2013-02-22 22:10:00,16.3,16.3,29.77,West,264,0.0,0.0,100,0.00,,,0.00,VWS V13.01,2013-02-23 04:10:00,
2013-02-22 22:13:00,16.3,16.3,29.77,West,264,0.0,0.0,100,0.00,,,0.00,VWS V13.01,2013-02-23 04:13:00,
2013-02-22 22:15:00,16.2,16.2,29.77,West,265,0.0,0.0,100,0.00,,,0.00,VWS V13.01,2013-02-23 04:15:00,
2013-02-22 22:18:00,16.2,16.2,29.77,West,264,0.0,0.0,100,0.00,,,0.00,VWS V13.01,2013-02-23 04:18:00,
2013-02-22 22:19:00,16.0,16.0,29.77,West,265,0.0,0.0,100,0.00,,,0.00,VWS V13.01,2013-02-23 04:19:00,
2013-02-22 22:20:00,16.0,16.0,29.77,West,265,0.0,0.0,100,0.00,,,0.00,VWS V13.01,2013-02-23 04:20:00,
2013-02-22 22:23:00,16.0,16.0,29.77,West,264,0.0,0.0,100,0.00,,,0.00,VWS V13.01,2013-02-23 04:23:00,
2013-02-22 22:24:00,16.0,16.0,29.77,West,265,0.0,0.0,100,0.00,,,0.00,VWS V13.01,2013-02-23 04:24:00,
2013-02-22 22:25:00,16.0,16.0,29.77,West,265,0.0,0.0,100,0.00,,,0.00,VWS V13.01,2013-02-23 04:25:00,
2013-02-22 22:28:00,15.8,15.8,29.77,West,264,0.0,0.0,100,0.00,,,0.00,VWS V13.01,2013-02-23 04:28:00,
2013-02-22 22:29:00,15.8,15.8,29.77,West,265,0.0,0.0,100,0.00,,,0.00,VWS V13.01,2013-02-23 04:29:00,
2013-02-22 22:30:00,15.8,15.8,29.77,West,265,0.0,0.0,100,0.00,,,0.00,VWS V13.01,2013-02-23 04:30:00,
2013-02-22 22:33:00,15.6,15.6,29.77,West,265,0.0,0.0,100,0.00,,,0.00,VWS V13.01,2013-02-23 04:33:00,
2013-02-22 22:34:00,15.6,15.6,29.77,West,264,0.0,0.0,100,0.00,,,0.00,VWS V13.01,2013-02-23 04:34:00,
2013-02-22 22:35:00,15.8,15.8,29.77,West,265,0.0,0.0,100,0.00,,,0.00,VWS V13.01,2013-02-23 04:35:00,
2013-02-22 22:38:00,15.8,15.8,29.77,West,264,0.0,0.0,100,0.00,,,0.00,VWS V13.01,2013-02-23 04:38:00,
2013-02-22 22:39:00,15.8,15.8,29.77,West,265,0.0,0.0,100,0.00,,,0.00,VWS V13.01,2013-02-23 04:39:00,
2013-02-22 22:40:00,16.0,16.0,29.77,West,263,0.0,0.0,100,0.00,,,0.00,VWS V13.01,2013-02-23 04:40:00,
2013-02-22 22:43:00,16.2,16.2,29.77,West,264,0.0,0.0,100,0.00,,,0.00,VWS V13.01,2013-02-23 04:43:00,
2013-02-22 22:44:00,16.2,16.2,29.77,West,265,0.0,0.0,100,0.00,,,0.00,VWS V13.01,2013-02-23 04:44:00,
2013-02-22 22:45:00,16.2,16.2,29.77,West,265,0.0,0.0,100,0.00,,,0.00,VWS V13.01,2013-02-23 04:45:00,
2013-02-22 22:48:00,15.8,15.8,29.77,West,264,0.0,0.0,100,0.00,,,0.00,VWS V13.01,2013-02-23 04:48:00,
2013-02-22 22:49:00,15.8,15.8,29.77,West,264,0.0,0.0,100,0.00,,,0.00,VWS V13.01,2013-02-23 04:49:00,
2013-02-22 22:50:00,15.8,15.8,29.77,West,264,0.0,0.0,100,0.00,,,0.00,VWS V13.01,2013-02-23 04:50:00,
2013-02-22 22:53:00,15.4,15.4,29.77,West,264,0.0,0.0,100,0.00,,,0.00,VWS V13.01,2013-02-23 04:53:00,
2013-02-22 22:54:00,15.4,15.4,29.77,West,264,0.0,0.0,100,0.00,,,0.00,VWS V13.01,2013-02-23 04:54:00,
2013-02-22 22:55:00,15.4,15.4,29.77,West,264,0.0,0.0,100,0.00,,,0.00,VWS V13.01,2013-02-23 04:55:00,
2013-02-22 22:58:00,15.3,15.3,29.77,West,264,0.0,0.0,100,0.00,,,0.00,VWS V13.01,2013-02-23 04:58:00,
2013-02-22 22:59:00,15.3,15.3,29.77,West,265,0.0,0.0,100,0.00,,,0.00,VWS V13.01,2013-02-23 04:59:00,
2013-02-22 23:00:00,15.3,15.3,29.77,West,265,0.0,0.0,100,0.00,,,0.00,VWS V13.01,2013-02-23 05:00:00,
2013-02-22 23:05:00,15.1,15.1,29.77,West,264,0.0,0.0,100,0.00,,,0.00,VWS V13.01,2013-02-23 05:05:00,
2013-02-22 23:10:00,14.9,14.9,29.77,West,265,0.0,0.0,100,0.00,,,0.00,VWS V13.01,2013-02-23 05:10:00,
2013-02-22 23:15:00,14.7,14.7,29.77,West,264,0.0,0.0,100,0.00,,,0.00,VWS V13.01,2013-02-23 05:15:00,
2013-02-22 23:20:00,14.4,14.4,29.77,West,264,0.0,0.0,100,0.00,,,0.00,VWS V13.01,2013-02-23 05:20:00,
2013-02-22 23:25:00,14.2,14.2,29.77,West,264,0.0,0.0,100,0.00,,,0.00,VWS V13.01,2013-02-23 05:25:00,
2013-02-22 23:30:00,14.4,14.4,29.77,West,265,0.0,0.0,100,0.00,,,0.00,VWS V13.01,2013-02-23 05:30:00,
2013-02-22 23:35:00,14.4,14.4,29.77,West,265,0.0,0.0,100,0.00,,,0.00,VWS V13.01,2013-02-23 05:35:00,
2013-02-22 23:40:00,14.5,14.5,29.77,West,265,0.0,0.0,100,0.00,,,0.00,VWS V13.01,2013-02-23 05:40:00,
2013-02-22 23:45:00,14.5,14.5,29.77,South,185,0.0,0.0,100,0.00,,,0.00,VWS V13.01,2013-02-23 05:45:00,
2013-02-22 23:50:00,14.4,14.4,29.77,South,191,0.0,0.0,100,0.00,,,0.00,VWS V13.01,2013-02-23 05:50:00,
2013-02-22 23:51:00,14.2,14.2,29.77,South,191,0.0,0.0,100,0.00,,,0.00,VWS V13.01,2013-02-23 05:51:00,
2013-02-22 23:55:00,14.2,14.2,29.77,South,191,0.0,0.0,100,0.00,,,0.00,VWS V13.01,2013-02-23 05:55:00,
2013-02-22 23:56:00,14.2,14.2,29.77,South,191,0.0,0.0,100,0.00,,,0.00,VWS V13.01,2013-02-23 05:56:00,